Regional Weather Roundup
Issued by NWS Lake Charles, LA

Home | Current Version | Previous Version | Text Only | Print | Product List | Glossary On
Versions: 1 2 3 4 5 6 7 8 9 10 11 12 13 14 15 16 17 18 19 20 21 22 23 24 25 26 27
000
ASUS44 KLCH 192110
RWRLCH
REGIONAL WEATHER ROUNDUP
NATIONAL WEATHER SERVICE LAKE CHARLES LA
300 PM CST SUN FEB 19 2017

Note: "fair" indicates few or no clouds below 12,000 feet with no
significant weather and/or obstructions to visibility.


ACROSS SOUTHEAST TEXAS

CITY           SKY/WX    TMP DP  RH WIND       PRES   REMARKS
BEAUMONT       MOSUNNY   78  68  71 SE18G25   29.93F
BEAUMONT CITY  MOCLDY    80  67  63 SE14G25   29.94S
ORANGE         MOCLDY    78  68  72 SE12G18   29.96F
JASPER         CLOUDY    77  69  75 SE6       29.96F
$$

ACROSS CENTRAL LOUISIANA

CITY           SKY/WX    TMP DP  RH WIND       PRES   REMARKS
LEESVILLE      MOSUNNY   77  65  68 SE12      29.96S
FULLERTON      FAIR      79  64  60 SE8       29.94F
ALEXANDRIA INT PTSUNNY   74  62  66 SE12      29.97F
ESLER FIELD    PTSUNNY   78  61  55 SE10      29.99F
DERIDDER       CLOUDY    73  66  79 SE12G17   29.99F
OAKDALE        MOCLDY    76  65  67 SE3       29.98F
OPELOUSAS      FAIR      77  65  65 MISG      30.00F
$$

ACROSS SOUTHWEST AND SOUTH CENTRAL LOUISIANA

CITY           SKY/WX    TMP DP  RH WIND       PRES   REMARKS
SULPHUR        MOCLDY    80  69  68 SE10      29.97F
LAKE CHARLES   MOSUNNY   79  68  69 SE16      29.96F
CHENNAULT INT  NOT AVBL
CAMERON PHI    FOG       68  68 100 SE15      29.94F VSB 1/2
DEQUINCY       CLOUDY    74  67  78 E9        29.97S
JENNINGS       CLOUDY    76  67  74 SE14      29.98F
LAFAYETTE      MOSUNNY   80  68  66 SE8       30.00F
NEW IBERIA     CLOUDY    80  67  64 SE13G20   30.00F
ABBEVILLE      MOCLDY    77  72  83 E13G21    30.00F
PATTERSON      PTSUNNY   78  69  73 SE9       30.02S
SALT POINT       N/A     77  69  76 SE12G17   30.00S
$$

SELECTED SITES ACROSS THE REGION

CITY           SKY/WX    TMP DP  RH WIND       PRES   REMARKS
HOUSTON BUSH   MOSUNNY   79  67  66 SE14      29.87F
HOUSTON HOBBY  PTSUNNY   80  65  59 SE12G20   29.87F
GALVESTON      MOSUNNY   74  69  85 E16       29.90F
COLLEGE STAT   CLOUDY    78  67  68 SE15G29   29.85F
CONROE         SUNNY     79  64  60 SE17G25   29.88F
HUNTSVILLE     CLOUDY    76  65  68 S13G23    29.88F
LUFKIN         CLOUDY    73  66  78 SE12      29.91F
SHREVEPORT     PTSUNNY   80  60  50 E12       29.93F
MONROE         SUNNY     78  49  35 SE10      30.01F
NATCHEZ MS     SUNNY     81  52  36 S12       30.02S
BATON ROUGE    MOSUNNY   78  63  59 S7        30.02F
N.O. INTL ARPT PTSUNNY   78  68  71 S10       30.03S
SLIDELL        SUNNY     81  46  29 S6        30.03F
$$

MARINE REPORTS

STATION/POSITION TIME  SKY/WX   TEMP    WIND        PRES    VSBY
                                AIR SEA DIR/SP/G
                 (UTC)          (F)     (DEG/KT/KT) (MB)    (MI)
BUOY 30 S HIGH I 2050            67 64  110/ 12/ 14 1012.3F
WVE H/P(F/S)=  2/ 6

SEA RIM ST PARK  2100            67     110/ 13/ 16 1013.9F
PORT ARTHUR      2048               65  140/  9/ 14 1013.9F
SABINE PASS N    2042            67 67  120/ 13/ 17 1015.2F
TEXAS POINT      NOT AVBL
CALCASIEU PASS   2048            67 66  120/ 15/ 19   N/A
LK CHARLES BEACH 2048            76 64              1014.9F
MARSH ISLAND     2000            64                   N/A
FRESH WATER LOCK 2048            67 66  100/ 11/ 16 1016.3F
AMERADA PASS     2048            75 58  110/  6/  9 1016.3R
$$




USA.gov is the U.S. government's official web portal to all federal, state and local government web resources and services.